[[{"header":{"parameterUnit":"m.s-1","parameterCategory":1,"la1":30.2991,"la2":30.254,"lo1":-89.0895,"lo2":-89.0444,"dy":0.0017,"dx":0.0017,"nx":28,"ny":28,"refTime":"2024-08-27T21:00:00:Z","depth":0,"parameterNumber":2,"parameterNumberName":"U-component_of_WINDS"},"data":[0,0,0,0,0,0,0,0,0,0,0,0,0,0,0,0,0,0,0,0,0,0,0,0,0,0,0,0,0,0,0,0,0,0,0,0,0,0,0,0,0,0,0,0,0,0,0,0,0,0,0,0,0,0,0,0,0,0,-0.6164,-0.6163,0,-0.606,-0.6059,-0.6057,-0.5937,-0.5935,-0.5933,-0.5932,-0.5832,-0.5831,-0.583,0,0,0,0,0,0,0,0,0,0,0,0,0,-0.6267,-0.6266,-0.6164,-0.6163,-0.6162,-0.606,-0.6058,-0.6057,-0.5937,-0.5935,-0.5933,-0.5931,-0.5832,-0.5831,-0.583,0,0,0,0,0,0,0,0,0,0,0,0,0,-0.6199,-0.6266,-0.6165,-0.609,-0.6082,-0.606,-0.6058,-0.6057,-0.5938,-0.5935,-0.5932,-0.593,-0.5833,-0.5831,-0.583,-0.5876,0,0,-0.5826,-0.5825,0,0,0,0,0,0,0,0,-0.6203,-0.6195,-0.6102,-0.6095,-0.6086,-0.6008,-0.6058,-0.5996,-0.5938,-0.5993,-0.5932,-0.5928,-0.5893,-0.5887,-0.5873,-0.5871,-0.5867,-0.5825,-0.5825,-0.5824,-0.5824,0,0,0,0,0,0,0,-0.6208,-0.6199,-0.6123,-0.6101,-0.6091,-0.6063,-0.6051,-0.6046,-0.596,-0.5988,-0.5979,-0.5968,-0.5889,-0.5875,-0.587,-0.5866,-0.5825,-0.5824,-0.5823,-0.5823,-0.5895,-0.5898,0,0,0,0,0,0,-0.6223,-0.6204,-0.6126,-0.612,-0.6139,-0.6064,-0.6049,-0.6036,-0.596,-0.5945,-0.597,-0.5962,-0.5879,-0.5872,-0.5866,-0.5914,-0.5824,-0.5823,-0.5822,-0.5893,-0.5896,-0.5899,0,0,0,0,0,0,-0.6226,-0.6217,-0.6131,-0.6159,-0.6146,-0.6065,-0.6051,-0.6036,-0.6022,-0.5946,-0.5931,-0.5972,-0.5876,-0.5868,-0.5874,-0.5909,-0.5822,-0.5821,-0.5889,-0.5894,-0.5898,-0.6011,0,0,0,0,0,0,-0.6229,-0.6219,-0.6234,-0.616,-0.6145,-0.6138,-0.6053,-0.6036,-0.6019,-0.6008,-0.5944,-0.593,-0.5874,-0.5877,-0.5872,-0.5906,-0.582,-0.5886,-0.5891,-0.5896,-0.6004,-0.6019,-0.6032,0,0,0,0,0,-0.6233,-0.6272,-0.6235,-0.6227,-0.6162,-0.6141,-0.6132,-0.6064,-0.6022,-0.6038,-0.5989,-0.5932,-0.5906,-0.5878,-0.5872,-0.5906,-0.5883,-0.589,-0.5896,-0.5998,-0.6016,-0.6031,0,0,0,0,0,0,-0.6355,-0.6261,-0.6219,-0.6235,-0.6196,-0.612,-0.6137,-0.6085,-0.6059,-0.6051,-0.5969,-0.5956,-0.5971,-0.5939,-0.591,-0.5946,-0.5886,-0.5892,-0.5966,-0.5983,-0.5996,-0.6003,-0.5818,0,0,0,0,0,-0.6383,-0.6371,-0.6291,-0.6313,-0.6295,-0.622,-0.6208,-0.6159,-0.6116,-0.61,-0.6052,-0.6015,-0.5998,-0.5989,-0.5969,-0.5999,-0.5983,-0.6019,-0.6033,-0.6045,-0.605,-0.6063,-0.6078,-0.592,-0.592,-0.5919,0,0,-0.6442,-0.6389,-0.6387,-0.6336,-0.63,-0.6291,-0.6207,-0.6202,-0.6195,-0.61,-0.6101,-0.6065,-0.6018,-0.6036,-0.6041,-0.601,-0.6091,-0.6053,-0.6063,-0.6062,-0.6071,-0.6086,-0.61,-0.5924,-0.5923,-0.5922,0,0,-0.6544,-0.6503,-0.6516,-0.6481,-0.6427,-0.6377,-0.638,-0.6311,-0.6283,-0.6282,-0.621,-0.6202,-0.6175,-0.6144,-0.6125,-0.6216,-0.6163,-0.6212,-0.6284,-0.6297,-0.631,-0.632,-0.6352,-0.6365,-0.6218,-0.6218,-0.6219,0,-0.6625,-0.6606,-0.653,-0.6528,-0.6508,-0.6419,-0.6433,-0.6404,-0.6347,-0.6336,-0.6301,-0.6264,-0.6226,-0.6235,-0.6257,-0.6245,-0.6247,-0.6219,-0.6314,-0.6324,-0.6333,-0.6362,-0.6374,-0.6225,-0.6224,-0.6223,-0.6223,0,-0.6708,-0.6697,-0.6714,-0.6658,-0.664,-0.6647,-0.6573,-0.6564,-0.6517,-0.6471,-0.6472,-0.6423,-0.6392,-0.6391,-0.6346,-0.6393,-0.6375,-0.6328,-0.6267,-0.6355,-0.6381,-0.6392,-0.6234,-0.6231,-0.6229,-0.6228,0,0,-0.6884,-0.6785,-0.6793,-0.6766,-0.6699,-0.669,-0.6693,-0.6659,-0.6653,-0.6618,-0.6618,-0.6597,-0.6552,-0.6531,-0.6482,-0.6494,-0.6568,-0.6445,-0.6443,-0.6469,-0.6617,-0.6652,-0.6666,-0.6532,-0.6534,-0.6535,-0.662,0,-0.6974,-0.697,-0.6901,-0.6918,-0.6906,-0.6822,-0.6824,-0.6785,-0.6742,-0.6728,-0.6682,-0.6667,-0.661,-0.6597,-0.6605,-0.6557,-0.6596,-0.655,-0.6533,-0.6533,-0.6546,-0.668,-0.6717,-0.6799,-0.663,-0.6632,-0.6633,0,-0.7078,-0.7045,-0.706,-0.6991,-0.6984,-0.6987,-0.695,-0.6938,-0.6892,-0.686,-0.6836,-0.6779,-0.6778,-0.6721,-0.6719,-0.6689,-0.6679,-0.6654,-0.6656,-0.6651,-0.6588,-0.6678,-0.6824,-0.6836,-0.6649,-0.6647,-0.6646,0,-0.7204,-0.7164,-0.7166,-0.7147,-0.7067,-0.7071,-0.7039,-0.699,-0.6974,-0.6944,-0.6932,-0.6903,-0.6888,-0.6867,-0.6804,-0.6768,-0.6811,-0.6748,-0.6785,-0.6787,-0.6797,-0.6797,-0.6943,-0.6792,-0.6792,-0.6792,-0.6791,0,-0.7311,-0.7323,-0.7222,-0.7224,-0.7235,-0.7157,-0.7171,-0.7131,-0.7088,-0.7082,-0.7009,-0.7005,-0.6923,-0.6911,-0.6862,-0.6868,-0.6862,-0.6837,-0.6824,-0.6843,-0.6846,-0.6835,-0.6827,-0.6795,-0.6794,-0.6793,-0.6793,0,-0.7453,-0.7386,-0.7383,-0.7307,-0.7289,-0.7301,-0.7237,-0.7237,-0.7189,-0.7182,-0.7177,-0.7103,-0.7085,-0.702,-0.6987,-0.6954,-0.6976,-0.6951,-0.699,-0.6981,-0.7022,-0.7019,-0.7165,-0.718,-0.7021,-0.7022,-0.7024,0,-0.7525,-0.7532,-0.7456,-0.7446,-0.7416,-0.74,-0.7382,-0.7307,-0.7292,-0.724,-0.7246,-0.7221,-0.7197,-0.7172,-0.7117,-0.7091,-0.7065,-0.7117,-0.7061,-0.7079,-0.7065,-0.7065,-0.7065,-0.713,-0.7132,-0.7134,-0.7135,0,-0.766,-0.7626,-0.7602,-0.7567,-0.7548,-0.7517,-0.7483,-0.7479,-0.7395,-0.7382,-0.7361,-0.7342,-0.7306,-0.7283,-0.7248,-0.7217,-0.7163,-0.7153,-0.716,-0.718,-0.7202,-0.719,-0.7023,-0.715,-0.7149,-0.7148,-0.7147,-0.7146,-0.7769,-0.777,-0.7717,-0.7693,-0.7659,-0.7628,-0.7623,-0.7574,-0.7554,-0.7517,-0.7475,-0.7459,-0.7413,-0.736,-0.7333,-0.732,-0.7291,-0.7301,-0.7304,-0.7307,-0.7316,-0.7205,-0.7314,-0.7313,-0.7313,-0.7312,-0.7312,0,-0.7899,-0.786,-0.7839,-0.7791,-0.7773,-0.7721,-0.768,-0.7669,-0.7655,-0.7615,-0.7592,-0.7568,-0.7545,-0.7488,-0.7459,-0.746,-0.7435,-0.7456,-0.7455,-0.7448,-0.7345,-0.7341,-0.7477,-0.7477,-0.7477,-0.7477,-0.7476,-0.7476,-0.7965,-0.7965,-0.7925,-0.7907,-0.7868,-0.785,-0.7831,-0.7803,-0.777,-0.7746,-0.7725,-0.7687,-0.7641,-0.7608,-0.7585,-0.7569,-0.7562,-0.7591,-0.7567,-0.7471,-0.7456,-0.7441,-0.7437,-0.759,-0.759,-0.7671,-0.7671,-0.7672]},{"header":{"parameterUnit":"m.s-1","parameterCategory":1,"la1":30.2991,"la2":30.254,"lo1":-89.0895,"lo2":-89.0444,"dy":0.0017,"dx":0.0017,"nx":28,"ny":28,"refTime":"2024-08-27T21:00:00:Z","depth":0,"parameterNumber":3,"parameterNumberName":"V-component_of_WINDS"},"data":[0,0,0,0,0,0,0,0,0,0,0,0,0,0,0,0,0,0,0,0,0,0,0,0,0,0,0,0,0,0,0,0,0,0,0,0,0,0,0,0,0,0,0,0,0,0,0,0,0,0,0,0,0,0,0,0,0,0,1.4251,1.4253,0,1.4422,1.4424,1.4426,1.4591,1.4593,1.4595,1.4597,1.477,1.4773,1.4775,0,0,0,0,0,0,0,0,0,0,0,0,0,1.4064,1.4067,1.4251,1.4253,1.4255,1.4421,1.4424,1.4426,1.459,1.4593,1.4596,1.4598,1.4769,1.4773,1.4776,0,0,0,0,0,0,0,0,0,0,0,0,0,1.4181,1.4068,1.425,1.4357,1.4368,1.4421,1.4424,1.4427,1.459,1.4593,1.4596,1.4599,1.4768,1.4772,1.4776,1.4737,0,0,1.4788,1.479,0,0,0,0,0,0,0,0,1.4174,1.4188,1.4339,1.435,1.4362,1.4488,1.4422,1.4531,1.4589,1.4506,1.4597,1.4601,1.4674,1.4686,1.4711,1.4745,1.4752,1.4789,1.4791,1.4793,1.4794,0,0,0,0,0,0,0,1.4166,1.4181,1.4318,1.4341,1.4355,1.4396,1.4416,1.4443,1.457,1.4513,1.4526,1.4544,1.4681,1.4706,1.4716,1.4755,1.4788,1.4792,1.4794,1.4796,1.4764,1.4761,0,0,0,0,0,0,1.4142,1.4173,1.4313,1.4324,1.4274,1.4396,1.4419,1.4445,1.457,1.4592,1.4541,1.4551,1.4698,1.4711,1.4723,1.4685,1.4793,1.4796,1.4799,1.4768,1.4764,1.476,0,0,0,0,0,0,1.4137,1.4153,1.4306,1.4252,1.4275,1.4396,1.4424,1.4446,1.4472,1.4591,1.4614,1.4544,1.4701,1.4717,1.4732,1.4693,1.4798,1.4802,1.4771,1.4766,1.4762,1.4607,0,0,0,0,0,0,1.4131,1.415,1.4137,1.425,1.4277,1.4312,1.4421,1.4447,1.4479,1.4494,1.46,1.4621,1.4705,1.4725,1.4736,1.47,1.4805,1.4775,1.4769,1.4763,1.4616,1.4598,1.4582,0,0,0,0,0,1.4124,1.4086,1.4135,1.4151,1.4263,1.431,1.4325,1.4424,1.4475,1.4462,1.4538,1.4617,1.4695,1.4725,1.4739,1.4703,1.4778,1.4771,1.4764,1.4624,1.4601,1.4582,0,0,0,0,0,0,1.3964,1.4103,1.4159,1.4157,1.422,1.4338,1.4325,1.4396,1.4446,1.4458,1.4577,1.46,1.46,1.4654,1.4685,1.4672,1.4748,1.4743,1.4637,1.4616,1.4599,1.4586,1.4808,0,0,0,0,0,1.3929,1.3956,1.4076,1.4062,1.4092,1.4202,1.4226,1.4297,1.4367,1.4394,1.4472,1.4536,1.4576,1.4599,1.4642,1.4625,1.465,1.4607,1.459,1.4575,1.4569,1.4563,1.4546,1.4736,1.4737,1.4737,0,0,1.3856,1.3935,1.3945,1.4032,1.409,1.4115,1.4224,1.4246,1.4265,1.4398,1.4417,1.4475,1.4555,1.4553,1.4557,1.4598,1.4522,1.4566,1.4553,1.4556,1.4554,1.4536,1.452,1.4732,1.4732,1.4733,0,0,1.3736,1.3799,1.3795,1.385,1.3936,1.4009,1.4008,1.4114,1.4158,1.4179,1.4279,1.4303,1.4369,1.4421,1.4457,1.4355,1.4429,1.4365,1.4275,1.4268,1.4253,1.424,1.4203,1.4188,1.4359,1.4359,1.4359,0,1.3635,1.3677,1.3783,1.3799,1.3834,1.3955,1.3951,1.4,1.4094,1.4115,1.416,1.4244,1.4306,1.4319,1.4293,1.4318,1.432,1.4354,1.4246,1.4235,1.4224,1.419,1.4176,1.4351,1.4352,1.4353,1.4353,0,1.3548,1.3575,1.3561,1.365,1.3683,1.3688,1.3795,1.3816,1.3882,1.3951,1.397,1.4049,1.4109,1.4118,1.4183,1.4138,1.4161,1.4224,1.4303,1.4196,1.4166,1.4154,1.4339,1.4342,1.4344,1.4346,0,0,1.3333,1.3479,1.3472,1.3514,1.3616,1.3639,1.365,1.3709,1.3724,1.3785,1.3797,1.3848,1.3907,1.3947,1.402,1.4013,1.3927,1.4078,1.4081,1.4046,1.3881,1.3832,1.3816,1.3976,1.3974,1.3973,1.3874,0,1.323,1.3257,1.3352,1.335,1.3376,1.3491,1.35,1.3563,1.3627,1.3658,1.3729,1.3764,1.3839,1.3864,1.3863,1.3937,1.3895,1.3946,1.3987,1.3987,1.3963,1.3801,1.375,1.3653,1.3863,1.3861,1.386,0,1.3114,1.3167,1.3167,1.3268,1.3283,1.3289,1.3351,1.3379,1.3453,1.35,1.3543,1.3624,1.3641,1.3714,1.3738,1.377,1.3792,1.3831,1.383,1.3837,1.3917,1.3803,1.3625,1.3609,1.3843,1.3844,1.3846,0,1.2956,1.3028,1.3037,1.3069,1.3187,1.3189,1.3238,1.3315,1.3344,1.3398,1.3418,1.3472,1.3502,1.3542,1.3634,1.3679,1.3647,1.3729,1.3686,1.3683,1.3674,1.3673,1.3496,1.3688,1.3688,1.3689,1.3689,0,1.2832,1.2827,1.2968,1.2973,1.2971,1.308,1.3075,1.3135,1.3202,1.3221,1.3324,1.3339,1.3461,1.3489,1.3562,1.357,1.3583,1.3621,1.364,1.3611,1.3606,1.3627,1.3636,1.3685,1.3686,1.3687,1.3687,0,1.2655,1.275,1.2767,1.2877,1.2905,1.2898,1.2992,1.3002,1.3071,1.3093,1.3105,1.3214,1.3253,1.335,1.3414,1.3463,1.3451,1.3487,1.3426,1.3438,1.339,1.3393,1.322,1.3202,1.3405,1.3403,1.3401,0,1.2569,1.2568,1.2678,1.2698,1.2743,1.2774,1.2804,1.2911,1.2938,1.3021,1.302,1.3067,1.3111,1.3167,1.3252,1.3302,1.3339,1.3275,1.3347,1.3318,1.3337,1.3336,1.3336,1.3259,1.3256,1.3254,1.3252,0,1.2406,1.2453,1.2493,1.2548,1.2581,1.263,1.2685,1.2695,1.2815,1.284,1.2881,1.2915,1.298,1.3025,1.3088,1.3138,1.3214,1.3228,1.3221,1.3192,1.3156,1.3174,1.3382,1.3232,1.3234,1.3235,1.3237,1.3237,1.2273,1.2277,1.2354,1.2395,1.2447,1.2495,1.2509,1.258,1.2617,1.2678,1.2739,1.2773,1.2846,1.2938,1.2983,1.3011,1.305,1.304,1.3037,1.3033,1.3019,1.3151,1.3023,1.3023,1.3024,1.3025,1.3025,0,1.2115,1.217,1.2206,1.2279,1.231,1.238,1.2443,1.2465,1.2494,1.2556,1.2596,1.2642,1.2686,1.2774,1.2825,1.2831,1.2867,1.2841,1.2841,1.2851,1.2981,1.2982,1.2811,1.2811,1.2811,1.2811,1.2811,1.2811,1.2036,1.2047,1.2102,1.2138,1.2194,1.2229,1.2259,1.2303,1.2353,1.24,1.2437,1.2494,1.2566,1.2623,1.2666,1.2691,1.2705,1.2667,1.2702,1.2822,1.2842,1.2862,1.2863,1.2669,1.2669,1.257,1.2569,1.2568]}]]